Regional Weather Roundup
Issued by NWS

Home | Current Version | Previous Version | Text Only | Print | Product List | Glossary On
Versions: 1 2 3 4 5 6 7 8 9 10 11 12 13 14 15 16 17 18 19 20 21 22 23 24 25 26 27 28 29 30 31 32 33 34 35 36 37 38 39 40 41 42 43 44 45 46 47 48 49 50
000
ASUS43 KBIS 171002
RWRND

NORTH DAKOTA REGIONAL WEATHER ROUNDUP
NATIONAL WEATHER SERVICE BISMARCK ND
400 AM CST SAT FEB 17 2018

NOTE: "FAIR" INDICATES FEW OR NO CLOUDS BELOW 12,000 FEET WITH NO
SIGNIFICANT WEATHER AND/OR OBSTRUCTIONS TO VISIBILITY.


NDZ001>003-009>011-017-171100-
NORTHWEST NORTH DAKOTA

CITY           SKY/WX    TMP DP  RH WIND       PRES   REMARKS
WILLISTON      PTCLDY    12   7  80 W9        29.87R WCI   0
MINOT          CLEAR     16  10  77 W14       29.80R WCI   2
MINOT AFB      CLEAR     14   9  79 NW14        N/A  WCI  -1
$$

NDZ018>021-031>035-040>046-171100-
SOUTHWEST NORTH DAKOTA

CITY           SKY/WX    TMP DP  RH WIND       PRES   REMARKS
BISMARCK       PTCLDY    15  14  95 W5        29.83R WCI   8
DICKINSON      CLOUDY    22  20  92 W13       29.78S WCI  10
GARRISON         N/A     13   9  84 NW15      29.80R WCI  -3
HETTINGER ARPT FLURRIES  21  19  92 NW8       29.82R WCI  11
$$

NDZ004>008-012>016-024-026-027-054-171100-
NORTHEAST NORTH DAKOTA

CITY           SKY/WX    TMP DP  RH WIND       PRES   REMARKS
GRAND FORKS    MOCLDY    14  10  84 W5        29.77S WCI   6
GRND FRKS AFB  FLURRIES  18  12  77 W7        29.77S WCI   8
DEVILS LAKE    FAIR      15  11  83 W15       29.76S WCI   0
$$

NDZ022-023-025-028>030-036>039-047>053-171100-
SOUTHEAST NORTH DAKOTA

CITY           SKY/WX    TMP DP  RH WIND       PRES   REMARKS
FARGO          FAIR      19  14  81 S8        29.81R WCI   9
JAMESTOWN      CLEAR     15  12  88 W8        29.78S WCI   4
$$




USA.gov is the U.S. government's official web portal to all federal, state and local government web resources and services.